UAL1149 KSFO-RKSI

Flight info

Callsign UAL1149
Flight time N/A
Altitude 34000
Route GNNRR3 AMAKR DCT REDWD DCT 42N130W 48N140W 52N150W 54N160W 54N170W/N0495F360 54N180E DCT NIKLL R220 NUZAN/N0502F370 R220 NUBDA/N0488F380 R220 NODAN R217 ASTER Y514 SDE Y512 GTC Y142 SAMON Y14 SUGNO Y16 SAPRA G585 GUKDO GUKDO2H
Aircraft B78X/H-SDE1E2E3FGHIJ2J3J4J5M1RWXY/LB1D1

Departure

Time 2026-05-06 17:17
Airport San Francisco International Airport (KSFO)

Arrival

Time N/A
Airport Incheon International Airport (RKSI)
Time Latitude Longitude Altitude Speed Heading
2026-05-06 16:04 37.61835 -122.39105 26 ft 0 kts 206°
2026-05-06 16:58 37.61843 -122.39100 32 ft 3 kts 206°
2026-05-06 16:58 37.61860 -122.39090 32 ft 2 kts 206°
2026-05-06 16:58 37.61869 -122.39085 32 ft 3 kts 211°
2026-05-06 16:58 37.61884 -122.39072 30 ft 3 kts 233°
2026-05-06 16:59 37.61892 -122.39059 31 ft 3 kts 265°
2026-05-06 16:59 37.61892 -122.39041 32 ft 3 kts 295°
2026-05-06 16:59 37.61883 -122.39019 32 ft 3 kts 302°
2026-05-06 16:59 37.61875 -122.39003 32 ft 1 kts 298°
2026-05-06 17:00 37.61873 -122.38998 32 ft 0 kts 298°
2026-05-06 17:03 37.61880 -122.39016 32 ft 7 kts 297°
2026-05-06 17:04 37.61915 -122.39102 32 ft 15 kts 296°
2026-05-06 17:04 37.61973 -122.39225 28 ft 15 kts 319°
2026-05-06 17:04 37.62033 -122.39236 31 ft 2 kts
2026-05-06 17:04 37.62041 -122.39233 28 ft 1 kts 19°
2026-05-06 17:05 37.62073 -122.39212 32 ft 7 kts 30°
2026-05-06 17:05 37.62116 -122.39181 29 ft 7 kts 29°
2026-05-06 17:05 37.62156 -122.39153 31 ft 6 kts 27°
2026-05-06 17:05 37.62204 -122.39116 30 ft 12 kts 40°
2026-05-06 17:06 37.62256 -122.39013 31 ft 14 kts 74°
2026-05-06 17:06 37.62251 -122.38906 32 ft 12 kts 106°
2026-05-06 17:06 37.62218 -122.38806 30 ft 12 kts 117°
2026-05-06 17:06 37.62181 -122.38713 29 ft 12 kts 117°
2026-05-06 17:07 37.62143 -122.38625 32 ft 11 kts 118°
2026-05-06 17:07 37.62106 -122.38542 26 ft 11 kts 121°
2026-05-06 17:07 37.62069 -122.38463 31 ft 10 kts 117°
2026-05-06 17:07 37.62041 -122.38383 31 ft 10 kts 115°
2026-05-06 17:08 37.62011 -122.38309 31 ft 9 kts 117°
2026-05-06 17:08 37.61982 -122.38237 32 ft 9 kts 117°
2026-05-06 17:08 37.61954 -122.38169 31 ft 9 kts 118°
2026-05-06 17:08 37.61926 -122.38103 29 ft 8 kts 118°
2026-05-06 17:09 37.61899 -122.38040 32 ft 8 kts 118°
2026-05-06 17:09 37.61871 -122.37976 32 ft 9 kts 119°
2026-05-06 17:09 37.61836 -122.37886 31 ft 15 kts 114°
2026-05-06 17:09 37.61792 -122.37747 31 ft 18 kts 109°
2026-05-06 17:10 37.61750 -122.37604 29 ft 17 kts 113°
2026-05-06 17:10 37.61704 -122.37473 29 ft 16 kts 114°
2026-05-06 17:10 37.61653 -122.37353 31 ft 15 kts 118°
2026-05-06 17:10 37.61604 -122.37242 29 ft 14 kts 118°
2026-05-06 17:11 37.61561 -122.37135 29 ft 13 kts 116°
2026-05-06 17:11 37.61518 -122.37033 32 ft 13 kts 119°
2026-05-06 17:11 37.61475 -122.36937 32 ft 12 kts 123°
2026-05-06 17:11 37.61420 -122.36859 29 ft 12 kts 133°
2026-05-06 17:12 37.61370 -122.36782 32 ft 11 kts 124°
2026-05-06 17:12 37.61332 -122.36702 32 ft 10 kts 117°
2026-05-06 17:12 37.61299 -122.36623 32 ft 10 kts 118°
2026-05-06 17:12 37.61267 -122.36547 28 ft 10 kts 117°
2026-05-06 17:13 37.61237 -122.36474 30 ft 9 kts 117°
2026-05-06 17:13 37.61208 -122.36403 31 ft 9 kts 118°
2026-05-06 17:13 37.61180 -122.36336 31 ft 9 kts 118°
2026-05-06 17:13 37.61153 -122.36272 32 ft 8 kts 117°
2026-05-06 17:14 37.61127 -122.36209 30 ft 8 kts 117°
2026-05-06 17:14 37.61115 -122.36145 28 ft 7 kts 95°
2026-05-06 17:14 37.61123 -122.36094 28 ft 4 kts 68°
2026-05-06 17:14 37.61138 -122.36067 30 ft 3 kts 50°
2026-05-06 17:15 37.61163 -122.36046 31 ft 5 kts 28°
2026-05-06 17:15 37.61200 -122.36034 31 ft 6 kts
2026-05-06 17:15 37.61242 -122.36047 30 ft 7 kts 336°
2026-05-06 17:15 37.61276 -122.36089 29 ft 7 kts 303°
2026-05-06 17:16 37.61286 -122.36111 30 ft 0 kts 300°
2026-05-06 17:16 37.61318 -122.36186 32 ft 36 kts 298°
2026-05-06 17:16 37.61543 -122.36725 26 ft 102 kts 298°
2026-05-06 17:17 37.61969 -122.37737 29 ft 157 kts 298°
2026-05-06 17:17 37.62528 -122.39074 243 ft 178 kts 291°
2026-05-06 17:17 37.63073 -122.40484 1050 ft 180 kts 294°
2026-05-06 17:17 37.63610 -122.41937 1850 ft 182 kts 298°
2026-05-06 17:18 37.64263 -122.43291 2501 ft 190 kts 303°
2026-05-06 17:18 37.64989 -122.44757 3006 ft 204 kts 301°
2026-05-06 17:18 37.65714 -122.46376 3532 ft 218 kts 300°
2026-05-06 17:18 37.66433 -122.48007 4392 ft 208 kts 300°
2026-05-06 17:19 37.67163 -122.49644 4728 ft 221 kts 301°
2026-05-06 17:19 37.68056 -122.51288 5066 ft 230 kts 310°
2026-05-06 17:19 37.69032 -122.52924 5518 ft 235 kts 308°
2026-05-06 17:19 37.70006 -122.54627 5975 ft 244 kts 308°
2026-05-06 17:20 37.71014 -122.56348 6454 ft 250 kts 309°
2026-05-06 17:20 37.72068 -122.58127 6977 ft 256 kts 309°
2026-05-06 17:20 37.73160 -122.59976 7354 ft 269 kts 309°
2026-05-06 17:20 37.74289 -122.61898 7903 ft 274 kts 309°
2026-05-06 17:21 37.75430 -122.63841 8508 ft 277 kts 310°
2026-05-06 17:21 37.76582 -122.65803 9098 ft 279 kts 310°
2026-05-06 17:21 37.77749 -122.67788 9699 ft 282 kts 310°
2026-05-06 17:21 37.78927 -122.69795 10255 ft 287 kts 310°
2026-05-06 17:22 37.80112 -122.71814 10702 ft 291 kts 310°
2026-05-06 17:22 37.81324 -122.73883 11223 ft 294 kts 310°
2026-05-06 17:22 37.82659 -122.75865 11685 ft 298 kts 326°
2026-05-06 17:22 37.84420 -122.77347 11986 ft 312 kts 329°
2026-05-06 17:23 37.86289 -122.78907 12219 ft 331 kts 329°
2026-05-06 17:23 37.88265 -122.80554 12428 ft 349 kts 329°
2026-05-06 17:23 37.90356 -122.82286 12601 ft 367 kts 329°
2026-05-06 17:23 37.92525 -122.84084 12748 ft 385 kts 329°
2026-05-06 17:24 37.94792 -122.85970 13179 ft 393 kts 329°
2026-05-06 17:24 37.97096 -122.87891 13726 ft 398 kts 329°
2026-05-06 17:24 37.99424 -122.89828 14257 ft 402 kts 329°
2026-05-06 17:24 38.01776 -122.91785 14775 ft 406 kts 329°
2026-05-06 17:25 38.04118 -122.93737 15275 ft 409 kts 329°
2026-05-06 17:25 38.06510 -122.95733 15794 ft 413 kts 329°
2026-05-06 17:25 38.08920 -122.97746 16305 ft 416 kts 329°
2026-05-06 17:25 38.11349 -122.99775 16802 ft 419 kts 329°
2026-05-06 17:26 38.13795 -123.01820 17267 ft 422 kts 329°
2026-05-06 17:26 38.16251 -123.03876 17754 ft 425 kts 329°
2026-05-06 17:26 38.18732 -123.05955 18226 ft 428 kts 329°
2026-05-06 17:26 38.21205 -123.08027 18657 ft 431 kts 329°
2026-05-06 17:27 38.23711 -123.10130 19047 ft 434 kts 329°
2026-05-06 17:27 38.26240 -123.12253 19446 ft 436 kts 329°
2026-05-06 17:27 38.28787 -123.14393 19844 ft 439 kts 329°
2026-05-06 17:27 38.31349 -123.16549 20240 ft 441 kts 329°
2026-05-06 17:28 38.33918 -123.18712 20621 ft 444 kts 329°
2026-05-06 17:28 38.36501 -123.20888 20994 ft 446 kts 329°
2026-05-06 17:28 38.39098 -123.23078 21356 ft 449 kts 329°
2026-05-06 17:28 38.41707 -123.25280 21718 ft 451 kts 329°
2026-05-06 17:29 38.44302 -123.27473 22052 ft 453 kts 329°
2026-05-06 17:29 38.46943 -123.29706 22404 ft 455 kts 329°
2026-05-06 17:29 38.49594 -123.31949 22744 ft 458 kts 329°
2026-05-06 17:29 38.52259 -123.34207 23077 ft 460 kts 329°
2026-05-06 17:30 38.54931 -123.36472 23392 ft 462 kts 329°
2026-05-06 17:30 38.57618 -123.38753 23715 ft 464 kts 329°
2026-05-06 17:30 38.60310 -123.41039 23983 ft 466 kts 329°
2026-05-06 17:30 38.63019 -123.43342 24231 ft 468 kts 329°
2026-05-06 17:31 38.65699 -123.45623 24477 ft 470 kts 329°
2026-05-06 17:31 38.68430 -123.47949 24724 ft 472 kts 329°
2026-05-06 17:31 38.71173 -123.50288 24969 ft 473 kts 329°
2026-05-06 17:31 38.73920 -123.52632 25207 ft 475 kts 329°
2026-05-06 17:32 38.76674 -123.54984 25442 ft 477 kts 329°
2026-05-06 17:32 38.79447 -123.57355 25689 ft 479 kts 329°
2026-05-06 17:32 38.82195 -123.59706 25930 ft 480 kts 329°
2026-05-06 17:32 38.84979 -123.62090 26176 ft 482 kts 329°
2026-05-06 17:33 38.87782 -123.64494 26420 ft 484 kts 329°
2026-05-06 17:33 38.90597 -123.66909 26664 ft 486 kts 329°
2026-05-06 17:33 38.93423 -123.69337 26908 ft 488 kts 329°
2026-05-06 17:33 38.96210 -123.71756 27160 ft 490 kts 327°
2026-05-06 17:34 38.98799 -123.74667 27400 ft 497 kts 317°
2026-05-06 17:34 39.00988 -123.78155 27661 ft 504 kts 307°
2026-05-06 17:34 39.02692 -123.82081 27908 ft 510 kts 300°
2026-05-06 17:34 39.04267 -123.86187 28136 ft 512 kts 300°
2026-05-06 17:35 39.05829 -123.90323 28351 ft 514 kts 299°
2026-05-06 17:35 39.07391 -123.94484 28608 ft 516 kts 299°
2026-05-06 17:35 39.08972 -123.98661 28859 ft 518 kts 300°
2026-05-06 17:36 39.12119 -124.06982 29483 ft 519 kts 299°
2026-05-06 17:36 39.13691 -124.11172 29879 ft 518 kts 300°
2026-05-06 17:36 39.15262 -124.15352 30268 ft 518 kts 300°
2026-05-06 17:36 39.16838 -124.19543 30612 ft 517 kts 300°
2026-05-06 17:37 39.18386 -124.23671 30941 ft 517 kts 299°
2026-05-06 17:37 39.19948 -124.27847 31300 ft 516 kts 300°
2026-05-06 17:37 39.21505 -124.32014 31655 ft 516 kts 299°
2026-05-06 17:37 39.23065 -124.36190 32039 ft 515 kts 299°
2026-05-06 17:38 39.24621 -124.40363 32396 ft 514 kts 299°
2026-05-06 17:38 39.26168 -124.44518 32774 ft 514 kts 299°
2026-05-06 17:38 39.27714 -124.48677 33152 ft 513 kts 299°
2026-05-06 17:38 39.29257 -124.52834 33540 ft 512 kts 299°
2026-05-06 17:39 39.30793 -124.56975 33932 ft 512 kts 299°
2026-05-06 17:39 39.32330 -124.61127 34227 ft 513 kts 299°
2026-05-06 17:39 39.35393 -124.69423 34232 ft 508 kts 299°
2026-05-06 17:40 39.38439 -124.77684 34230 ft 510 kts 298°
2026-05-06 17:40 39.41462 -124.85916 34236 ft 510 kts 298°
2026-05-06 17:41 39.44495 -124.94194 34232 ft 509 kts 298°
2026-05-06 17:41 39.47526 -125.02491 34233 ft 509 kts 298°
2026-05-06 17:42 39.50528 -125.10733 34243 ft 508 kts 298°
2026-05-06 17:42 39.53542 -125.19029 34242 ft 508 kts 298°
2026-05-06 17:43 39.56527 -125.27269 34250 ft 507 kts 298°
2026-05-06 17:43 39.59523 -125.35561 34246 ft 507 kts 297°
2026-05-06 17:44 39.62512 -125.43858 34240 ft 506 kts 297°
2026-05-06 17:44 39.65473 -125.52102 34236 ft 506 kts 297°
2026-05-06 17:45 39.68447 -125.60405 34240 ft 505 kts 297°